Orbital Elements at Epoch 2459000.5 (2020-May-31.0) TDB
Reference: JPL 19 (heliocentric ecliptic J2000)
Element | Value | Uncertainty (1-sigma) | Units |
e | .2713823512965582 | 5.9309e-08 | |
a | 3.005929037641501 | 2.4786e-08 | au |
q | 2.19017294757575 | 1.8796e-07 | au |
i | 9.173093586226925 | 6.2727e-06 | deg |
node | 202.63670658 | 2.5187e-05 | deg |
peri | 320.408223108482 | 2.8252e-05 | deg |
M | 16.01659317325384 | 8.2341e-06 | deg |
tp | 2458915.809605423650 (2020-Mar-07.30960542) | 4.3789e-05 | TDB |
period | 1903.559746925395 5.21 | 2.3545e-05 6.446e-08 | d yr |
n | .1891193594429948 | 2.3392e-09 | deg/d |
Q | 3.821685127707251 | 3.1513e-08 | au |
|
| | Orbit Determination Parameters
Additional Information
|